Surface/Precipitation History
01/22/2019 06:54  to  1/23/2019 06:54
Change End Date:
Date/Time
(MST)
Sf
Temp Chem Water Layer Surface Precipitation
Sfc Pvt Sub Frz Factor Pct Dpth DpthThk IcePct Cond Salin FI Type Intens Accum Rate
01/23/2019 06:50 Ice Warning 26.2F - 31F 32F 15 0% - - 99% 1 mhos 92 - Yes - - -
01/23/2019 06:43 Ice Warning 26.2F - 31F 32F 20 0% - - 99% 1 mhos 92 - Yes - - -
01/23/2019 06:35 Ice Warning 26.2F - 31F 32F 15 0% - - 99% 1 mhos 94 - None None - -
01/23/2019 06:33 Ice Warning 26.2F - 31F 32F 15 0% - - 99% 1 mhos 94 - None None - -
01/23/2019 06:23 Ice Warning 26.2F - 31F 32F 15 0% - - 99% 1 mhos 92 - Yes - - -
01/23/2019 06:21 Ice Warning 26.2F - 31F 32F 15 0% - - 99% 1 mhos 92 - None None - -
01/23/2019 06:13 Ice Warning 26.1F - 31F 32F 15 0% - - 99% 1 mhos 83 - None None - -
01/23/2019 06:06 Ice Warning 26.1F - 31F 32F 15 0% - - 99% 1 mhos 88 - None None - -
01/23/2019 06:03 Ice Warning 26.1F - 31F 32F 15 0% - - 99% 1 mhos 88 - None None - -
01/23/2019 05:53 Ice Warning 26.2F - 31F 32F 15 0% - - 99% 1 mhos 89 - Yes - - -
01/23/2019 05:50 Ice Warning 26.2F - 31F 32F 15 0% - - 99% 1 mhos 87 - Yes - - -
01/23/2019 05:43 Ice Warning 26.1F - 31F 32F 15 0% - - 99% 1 mhos 88 - Yes - - -
01/23/2019 05:35 Ice Warning 25.7F - 31F 32F 15 0% - - 99% 1 mhos 87 - Yes - - -
01/23/2019 05:33 Ice Warning 25.7F - 31F 32F 20 0% - - 99% 1 mhos 88 - Yes - - -
01/23/2019 05:23 Ice Warning 25.7F - 31F 32F 15 0% - - 99% 1 mhos 87 - Yes - - -
Date/Time
(MST)
Sf
Temp Chem Water Layer Surface Precipitation
Sfc Pvt Sub Frz Factor Pct Dpth DpthThk IcePct Cond Salin FI Type Intens Accum Rate
01/23/2019 05:20 Ice Warning 25.7F - 31F 32F 15 0% - - 99% 1 mhos 87 - Yes - - -
01/23/2019 05:12 Ice Warning 25.9F - 31F 32F 15 0% - - 99% 1 mhos 85 - Yes - - -
01/23/2019 05:05 Ice Warning 25.9F - 31F 32F 15 0% - - 99% 1 mhos 85 - Yes - - -
01/23/2019 05:02 Ice Warning 25.9F - 31F 32F 20 0% - - 99% 1 mhos 85 - Yes - - -
01/23/2019 04:52 Ice Warning 25.7F - 31F 32F 15 0% - - 99% 0 mhos 81 - Yes - - -
01/23/2019 04:50 Ice Warning 25.7F - 31F 32F 15 0% - - 99% 0 mhos 80 - Yes - - -
01/23/2019 04:42 Ice Warning 25.7F - 31F 32F 15 0% - - 99% 0 mhos 76 - Yes - - -
01/23/2019 04:36 Ice Warning 25.5F - 31F 32F 15 0% - - 99% 0 mhos 77 - Yes - - -
01/23/2019 04:32 Ice Warning 25.3F - 31F 32F 15 0% - - 99% 0 mhos 73 - Yes - - -
01/23/2019 04:22 Ice Warning 25.2F - 31F 32F 15 0% - - 99% 0 mhos 70 - Yes - - -
01/23/2019 04:12 Ice Warning 24.6F - 31F 32F 15 0% - - 99% 0 mhos 71 - Yes - - -
01/23/2019 04:02 Ice Warning 24.6F - 31F 32F 15 0% - - 99% 0 mhos 69 - Yes - - -
01/23/2019 03:52 Ice Warning 24.4F - 31F 32F 15 0% - - 99% 0 mhos 66 - Yes - - -
01/23/2019 03:50 Ice Warning 24.4F - 31F 32F 15 0% - - 99% 0 mhos 66 - Yes - - -
01/23/2019 03:42 Ice Warning 24.3F - 31F 32F 15 0% - - 99% 0 mhos 66 - Yes - - -
Date/Time
(MST)
Sf
Temp Chem Water Layer Surface Precipitation
Sfc Pvt Sub Frz Factor Pct Dpth DpthThk IcePct Cond Salin FI Type Intens Accum Rate
01/23/2019 03:36 Ice Warning 24.4F - 31F 32F 15 0% - - 99% 0 mhos 62 - Yes - - -
01/23/2019 03:32 Ice Warning 24.3F - 31F 32F 10 0% - - 100% 0 mhos 63 - Yes - - -
01/23/2019 03:22 Ice Warning 24.3F - 31F 32F 15 0% - - 100% 0 mhos 61 - Yes - - -
01/23/2019 03:20 Ice Warning 24.3F - 31F 32F 10 0% - - 100% 0 mhos 59 - Yes - - -
01/23/2019 03:12 Ice Warning 24.3F - 31F 32F 10 0% - - 100% 0 mhos 57 - Yes - - -
01/23/2019 03:05 Ice Warning 24.3F - 31F 32F 15 0% - - 100% 0 mhos 55 - Yes - - -
01/23/2019 03:02 Ice Warning 24.3F - 31F 32F 10 0% - - 100% 0 mhos 55 - Yes - - -
01/23/2019 02:52 Ice Warning 24.3F - 31F 32F 10 0% - - 100% 0 mhos 54 - Yes - - -
01/23/2019 02:50 Ice Warning 24.3F - 31F 32F 10 0% - - 100% 0 mhos 54 - Yes - - -
01/23/2019 02:42 Ice Warning 24.1F - 31F 32F 5 0% - - 100% 0 mhos 51 - Yes - - -
01/23/2019 02:35 Ice Warning 24.1F - 31F 32F 5 0% - - 100% 0 mhos 50 - Yes - - -
01/23/2019 02:32 Ice Warning 24.1F - 31F 32F 5 0% - - 100% 0 mhos 49 - Yes - - -
01/23/2019 02:22 Ice Warning 23.7F - 31F 32F 5 0% - - 100% 0 mhos 49 - Yes - - -
01/23/2019 02:20 Ice Warning 23.9F - 31F 32F 5 0% - - 100% 0 mhos 49 - Yes - - -
01/23/2019 02:12 Ice Warning 23.7F - 31F 32F 5 0% - - 100% 0 mhos 48 - Yes - - -
Date/Time
(MST)
Sf
Temp Chem Water Layer Surface Precipitation
Sfc Pvt Sub Frz Factor Pct Dpth DpthThk IcePct Cond Salin FI Type Intens Accum Rate
01/23/2019 02:06 Ice Warning 23.5F - 31F 32F 5 0% - - 100% 0 mhos 48 - Yes - - -
01/23/2019 02:01 Ice Warning 23.5F - 31F 32F 5 0% - - 100% 0 mhos 48 - Yes - - -
01/23/2019 01:51 Ice Warning 23.5F - 31F 32F 5 0% - - 100% 0 mhos 50 - Yes - - -
01/23/2019 01:51 Ice Warning 23.5F - 31F 32F 5 0% - - 100% 0 mhos 50 - Yes - - -
01/23/2019 01:41 Ice Warning 23.5F - 31F 32F 5 0% - - 100% 0 mhos 50 - Yes - - -
01/23/2019 01:35 Ice Warning 23.4F - 31F 32F 5 0% - - 100% 0 mhos 51 - Yes - - -
01/23/2019 01:31 Ice Warning 23.4F - 31F 32F 5 0% - - 100% 0 mhos 51 - Yes - - -
01/23/2019 01:21 Ice Warning 23.4F - 31F 32F 5 0% - - 100% 0 mhos 52 - Yes - - -
01/23/2019 01:20 Ice Warning 23.4F - 31F 32F 5 0% - - 100% 0 mhos 50 - Yes - - -
01/23/2019 01:11 Ice Warning 23.2F - 31F 32F 5 0% - - 100% 0 mhos 52 - Yes - - -
01/23/2019 01:05 Ice Warning 23.2F - 31F 32F 5 0% - - 100% 0 mhos 54 - Yes - - -
01/23/2019 01:01 Ice Warning 23.2F - 31F 32F 5 0% - - 100% 0 mhos 54 - Yes - - -
01/23/2019 00:51 Ice Warning 23.2F - 31F 32F 5 0% - - 100% 0 mhos 54 - Yes - - -
01/23/2019 00:50 Ice Warning 23.2F - 31F 32F 5 0% - - 100% 0 mhos 54 - Yes - - -
01/23/2019 00:41 Ice Warning 23.4F - 31F 32F 5 0% - - 100% 0 mhos 53 - Yes - - -
Date/Time
(MST)
Sf
Temp Chem Water Layer Surface Precipitation
Sfc Pvt Sub Frz Factor Pct Dpth DpthThk IcePct Cond Salin FI Type Intens Accum Rate
01/23/2019 00:36 Ice Warning 23.5F - 31F 32F 5 0% - - 100% 0 mhos 52 - Yes - - -
01/23/2019 00:31 Ice Warning 23.5F - 31F 32F 5 0% - - 100% 0 mhos 53 - Yes - - -
01/23/2019 00:21 Ice Warning 23.5F - 31F 32F 5 0% - - 100% 0 mhos 55 - Yes - - -
01/23/2019 00:20 Ice Warning 23.5F - 31F 32F 5 0% - - 100% 0 mhos 55 - Yes - - -
01/23/2019 00:11 Ice Warning 23.5F - 31F 32F 5 0% - - 99% 0 mhos 86 - Yes - - -
01/23/2019 00:06 Ice Warning 23.4F - 31F 32F 5 0% - - 99% 0 mhos 87 - Yes - - -
01/23/2019 00:01 Ice Warning 23.4F - 31F 32F 5 0% - - 99% 0 mhos 86 - Yes - - -
01/22/2019 23:51 Ice Warning 23.0F - 31F 32F 5 0% - - 99% 0 mhos 89 - Yes - - -
01/22/2019 23:51 Ice Warning 23.0F - 31F 32F 5 0% - - 99% 0 mhos 89 - Yes - - -
01/22/2019 23:41 Ice Warning 22.6F - 31F 32F 5 0% - - 99% 0 mhos 90 - Yes - - -
01/22/2019 23:36 Ice Warning 22.5F - 31F 32F 5 0% - - 99% 0 mhos 88 - Yes - - -
01/22/2019 23:31 Ice Warning 22.5F - 31F 32F 5 0% - - 99% 0 mhos 88 - Yes - - -
01/22/2019 23:20 Ice Warning 22.1F - 31F 32F 5 0% - - 99% 0 mhos 90 - None None - -
01/22/2019 23:20 Ice Warning 22.1F - 31F 32F 5 0% - - 99% 0 mhos 90 - None None - -
01/22/2019 23:10 Ice Warning 22.3F - 31F 32F 5 0% - - 99% 0 mhos 89 - None None - -
Date/Time
(MST)
Sf
Temp Chem Water Layer Surface Precipitation
Sfc Pvt Sub Frz Factor Pct Dpth DpthThk IcePct Cond Salin FI Type Intens Accum Rate
01/22/2019 23:05 Ice Warning 22.3F - 31F 32F 5 0% - - 99% 0 mhos 89 - Yes - - -
01/22/2019 23:00 Ice Warning 22.3F - 31F 32F 5 0% - - 99% 0 mhos 88 - None None - -
01/22/2019 22:50 Ice Warning 22.1F - 31F 32F 5 0% - - 99% 0 mhos 88 - None None - -
01/22/2019 22:50 Ice Warning 22.1F - 31F 32F 5 0% - - 99% 0 mhos 88 - None None - -
01/22/2019 22:40 Ice Warning 22.3F - 31F 32F 5 0% - - 99% 0 mhos 86 - None None - -
01/22/2019 22:35 Ice Warning 22.5F - 31F 32F 5 0% - - 99% 0 mhos 87 - None None - -
01/22/2019 22:30 Ice Warning 22.5F - 31F 32F 5 0% - - 99% 0 mhos 86 - None None - -
01/22/2019 22:21 Ice Warning 22.6F - 31F 32F 5 0% - - 99% 0 mhos 84 - Yes - - -
01/22/2019 22:20 Ice Warning 22.6F - 31F 32F 5 0% - - 99% 0 mhos 84 - Yes - - -
01/22/2019 22:10 Ice Warning 22.8F - 31F 32F 5 0% - - 99% 0 mhos 83 - None None - -
01/22/2019 22:05 Ice Warning 22.8F - 31F 32F 5 0% - - 99% 0 mhos 83 - Yes - - -
01/22/2019 22:00 Ice Warning 23.0F - 31F 32F 5 0% - - 99% 0 mhos 82 - Yes - - -
01/22/2019 21:51 Ice Warning 23.2F - 31F 32F 5 0% - - 99% 0 mhos 81 - Yes - - -
01/22/2019 21:50 Ice Warning 23.2F - 31F 32F 5 0% - - 99% 0 mhos 81 - Yes - - -
01/22/2019 21:40 Ice Warning 23.2F - 31F 32F 5 0% - - 99% 0 mhos 81 - Yes - - -
Date/Time
(MST)
Sf
Temp Chem Water Layer Surface Precipitation
Sfc Pvt Sub Frz Factor Pct Dpth DpthThk IcePct Cond Salin FI Type Intens Accum Rate
01/22/2019 21:36 Ice Warning 23.2F - 31F 32F 5 0% - - 99% 0 mhos 80 - Yes - - -
01/22/2019 21:30 Ice Warning 23.2F - 31F 32F 5 0% - - 99% 0 mhos 81 - Yes - - -
01/22/2019 21:21 Ice Warning 23.2F - 31F 32F 5 0% - - 99% 0 mhos 81 - Yes - - -
01/22/2019 21:20 Ice Warning 23.2F - 31F 32F 5 0% - - 99% 0 mhos 81 - Yes - - -
01/22/2019 21:10 Ice Warning 23.4F - 31F 32F 5 0% - - 99% 0 mhos 80 - Yes - - -
01/22/2019 21:06 Ice Warning 23.4F - 31F 32F 5 0% - - 99% 0 mhos 80 - None None - -
01/22/2019 21:00 Ice Warning 23.5F - 31F 32F 5 0% - - 99% 0 mhos 80 - Yes - - -
01/22/2019 20:51 Ice Warning 23.7F - 31F 32F 5 0% - - 99% 0 mhos 79 - Yes - - -
01/22/2019 20:50 Ice Warning 23.7F - 31F 32F 5 0% - - 99% 0 mhos 79 - Yes - - -
01/22/2019 20:40 Ice Warning 23.7F - 31F 32F 5 0% - - 99% 0 mhos 80 - Yes - - -
01/22/2019 20:36 Ice Warning 23.7F - 31F 32F 5 0% - - 99% 0 mhos 81 - Yes - - -
01/22/2019 20:30 Ice Warning 23.5F - 31F 32F 5 0% - - 99% 0 mhos 83 - Yes - - -
01/22/2019 20:21 Ice Warning 23.4F - 31F 32F 5 0% - - 99% 0 mhos 86 - Yes - - -
01/22/2019 20:19 Ice Warning 23.4F - 31F 32F 5 0% - - 99% 0 mhos 86 - Yes - - -
01/22/2019 20:09 Ice Warning 23.5F - 31F 32F 5 0% - - 99% 0 mhos 85 - Yes - - -
Date/Time
(MST)
Sf
Temp Chem Water Layer Surface Precipitation
Sfc Pvt Sub Frz Factor Pct Dpth DpthThk IcePct Cond Salin FI Type Intens Accum Rate
01/22/2019 20:06 Ice Warning 23.5F - 31F 32F 5 0% - - 99% 0 mhos 86 - Yes - - -
01/22/2019 19:59 Ice Warning 23.5F - 31F 32F 5 0% - - 99% 0 mhos 87 - Yes - - -
01/22/2019 19:51 Ice Warning 23.5F - 31F 32F 5 0% - - 99% 0 mhos 89 - Yes - - -
01/22/2019 19:49 Ice Warning 23.5F - 31F 32F 5 0% - - 99% 0 mhos 88 - Yes - - -
01/22/2019 19:39 Ice Warning 23.5F - 31F 32F 5 0% - - 99% 0 mhos 91 - Yes - - -
01/22/2019 19:35 Ice Warning 23.7F - 31F 32F 5 0% - - 99% 0 mhos 90 - Yes - - -
01/22/2019 19:29 Ice Warning 23.7F - 31F 32F 5 0% - - 99% 0 mhos 93 - Yes - - -
01/22/2019 19:21 Ice Warning 23.7F - 31F 32F 5 0% - - 99% 0 mhos 93 - Yes - - -
01/22/2019 19:19 Ice Warning 23.5F - 31F 32F 5 0% - - 99% 0 mhos 95 - Yes - - -
01/22/2019 19:09 Ice Warning 23.7F - 31F 32F 5 0% - - 99% 0 mhos 98 - Yes - - -
01/22/2019 19:05 Ice Warning 23.7F - 31F 32F 5 0% - - 99% 0 mhos 99 - Yes - - -
01/22/2019 18:59 Ice Warning 23.9F - 31F 32F 5 0% - - 99% 1 mhos 100 - Yes - - -
01/22/2019 18:51 Ice Warning 24.1F - 31F 32F 5 0% - - 99% 1 mhos 101 - Yes - - -
01/22/2019 18:49 Ice Warning 24.1F - 31F 32F 5 0% - - 99% 1 mhos 102 - Yes - - -
01/22/2019 18:39 Ice Warning 24.3F - 31F 32F 5 0% - - 99% 1 mhos 103 - Yes - - -
Date/Time
(MST)
Sf
Temp Chem Water Layer Surface Precipitation
Sfc Pvt Sub Frz Factor Pct Dpth DpthThk IcePct Cond Salin FI Type Intens Accum Rate
01/22/2019 18:35 Ice Warning 24.3F - 31F 32F 5 0% - - 99% 1 mhos 104 - Yes - - -
01/22/2019 18:29 Ice Warning 24.4F - 31F 32F 5 0% - - 99% 1 mhos 104 - Yes - - -
01/22/2019 18:21 Ice Warning 24.6F - 31F 32F 5 0% - - 99% 1 mhos 106 - Yes - - -
01/22/2019 18:19 Ice Warning 24.6F - 31F 32F 5 0% - - 99% 1 mhos 107 - Yes - - -
01/22/2019 18:09 Ice Warning 24.6F - 31F 32F 5 0% - - 99% 1 mhos 111 - Yes - - -
01/22/2019 18:05 Ice Warning 24.6F - 31F 32F 5 0% - - 99% 1 mhos 113 - Yes - - -
01/22/2019 17:59 Ice Warning 25.0F - 31F 32F 5 0% - - 99% 1 mhos 117 - Yes - - -
01/22/2019 17:50 Ice Warning 25.0F - 31F 32F 5 0% - - 99% 1 mhos 120 - Yes - - -
01/22/2019 17:49 Ice Warning 25.0F - 31F 32F 5 0% - - 99% 1 mhos 120 - Yes - - -
01/22/2019 17:39 Ice Warning 25.2F - 31F 32F 5 0% - - 99% 1 mhos 124 - Yes - - -
01/22/2019 17:35 Ice Warning 25.2F - 31F 32F 5 0% - - 99% 1 mhos 125 - Yes - - -
01/22/2019 17:29 Ice Warning 25.3F - 31F 32F 5 0% - - 99% 1 mhos 124 - Yes - - -
01/22/2019 17:20 Ice Warning 25.5F - 31F 32F 15 0% - - 99% 1 mhos 126 - Yes - - -
01/22/2019 17:18 Ice Warning 25.7F - 31F 32F 15 0% - - 99% 1 mhos 125 - Yes - - -
01/22/2019 17:08 Ice Warning 25.7F - 31F 32F 20 0% - - 99% 1 mhos 129 - Yes - - -
Date/Time
(MST)
Sf
Temp Chem Water Layer Surface Precipitation
Sfc Pvt Sub Frz Factor Pct Dpth DpthThk IcePct Cond Salin FI Type Intens Accum Rate
01/22/2019 17:05 Ice Warning 26.1F - 31F 32F 15 0% - - 99% 1 mhos 128 - Yes - - -
01/22/2019 16:58 Ice Warning 26.2F - 31F 32F 20 0% - - 99% 1 mhos 130 - Yes - - -
01/22/2019 16:50 Ice Warning 26.8F - 31F 32F 25 0% - - 99% 1 mhos 133 - Yes - - -
01/22/2019 16:48 Ice Warning 26.8F - 31F 32F 25 0% - - 99% 1 mhos 134 - Yes - - -
01/22/2019 16:38 Ice Warning 27.9F - 31F 32F 35 0% - - 98% 1 mhos 135 - Yes - - -
01/22/2019 16:35 Ice Warning 28.2F - 31F 32F 45 0% - - 98% 1 mhos 135 - Yes - - -
01/22/2019 16:28 Ice Warning 28.8F - 31F 32F 55 0% - - 98% 1 mhos 139 - Yes - - -
01/22/2019 16:21 Ice Warning 29.3F - 31F 32F 75 0% - - 97% 1 mhos 149 - Yes - - -
01/22/2019 16:18 Ice Warning 29.5F - 31F 32F 75 1% - - 97% 1 mhos 151 - Yes - - -
01/22/2019 16:08 Ice Warning 30.2F - 31F 32F 95 0% - - 96% 1 mhos 146 - Yes - - -
01/22/2019 16:06 Ice Warning 29.8F - 31F 32F 95 0% - - 97% 1 mhos 149 - Yes - - -
01/22/2019 15:58 Ice Warning 29.3F - 31F 32F 95 1% - - 97% 1 mhos 178 - Yes - - -
01/22/2019 15:51 Ice Warning 29.7F - 31F 32F 95 1% - - 96% 2 mhos 221 - Yes - - -
01/22/2019 15:48 Ice Warning 29.7F - 31F 32F 95 1% - - 95% 2 mhos 256 - Yes - - -
01/22/2019 15:38 Ice Warning 30.4F - 31F 32F 95 1% - - 90% 3 mhos 343 - Yes - - -
Date/Time
(MST)
Sf
Temp Chem Water Layer Surface Precipitation
Sfc Pvt Sub Frz Factor Pct Dpth DpthThk IcePct Cond Salin FI Type Intens Accum Rate
01/22/2019 15:36 Ice Warning 30.4F - 31F 32F 95 1% - - 89% 3 mhos 374 - Yes - - -
01/22/2019 15:28 Chemically Wet 30.9F - 31F 32F 95 1% - - 85% 4 mhos 392 - Yes - - -
01/22/2019 15:21 Chemically Wet 31.5F - 31F 32F 95 1% - - 75% 4 mhos 381 - Yes - - -
01/22/2019 15:18 Chemically Wet 31.5F - 31F 32F 95 1% - - 67% 4 mhos 380 - Yes - - -
01/22/2019 15:08 Chemically Wet 31.6F - 31F 32F 95 1% - - 54% 4 mhos 357 - Yes - - -
01/22/2019 15:06 Chemically Wet 32.0F - 31F 32F 95 1% 0.00 in - 0% 3 mhos 329 - Yes - - -
01/22/2019 14:58 Wet 33.1F - 31F 32F 95 1% 0.00 in - 0% 4 mhos 379 - Yes - - -
01/22/2019 14:51 Wet 34.2F - 31F 32F 95 1% 0.00 in - 0% 4 mhos 356 - Yes - - -
01/22/2019 14:48 Wet 34.7F - 31F 32F 95 1% 0.00 in - 0% 4 mhos 346 - Yes - - -
01/22/2019 14:37 Wet 33.8F - 31F 32F 95 1% 0.00 in - 0% 3 mhos 282 - Yes - - -
01/22/2019 14:35 Wet 34.3F - 31F 32F 95 1% 0.00 in - 0% 3 mhos 270 - Yes - - -
01/22/2019 14:27 Wet 33.8F - 31F 32F 95 1% 0.00 in - 0% 2 mhos 209 - Yes - - -
01/22/2019 14:20 Wet 34.3F - 31F 32F 95 1% 0.00 in - 0% 3 mhos 318 - Yes - - -
01/22/2019 14:17 Wet 34.5F - 31F 32F 95 1% 0.00 in - 0% 3 mhos 315 - Yes - - -
01/22/2019 14:07 Wet 33.8F - 31F 32F 95 1% 0.00 in - 0% 3 mhos 324 - Yes - - -
Date/Time
(MST)
Sf
Temp Chem Water Layer Surface Precipitation
Sfc Pvt Sub Frz Factor Pct Dpth DpthThk IcePct Cond Salin FI Type Intens Accum Rate
01/22/2019 14:05 Wet 33.6F - 31F 32F 95 1% 0.00 in - 0% 3 mhos 325 - Yes - - -
01/22/2019 13:57 Wet 33.8F - 31F 32F 95 1% 0.00 in - 0% 4 mhos 345 - Yes - - -
01/22/2019 13:50 Wet 34.2F - 31F 32F 95 1% 0.00 in - 0% 2 mhos 182 - Yes - - -
01/22/2019 13:47 Wet 34.3F - 31F 32F 95 1% 0.00 in - 0% 2 mhos 212 - Yes - - -
01/22/2019 13:37 Wet 32.9F - 31F 32F 95 1% 0.00 in - 0% 2 mhos 230 - Yes - - -
01/22/2019 13:35 Wet 33.3F - 31F 32F 95 1% 0.00 in - 0% 2 mhos 247 - Yes - - -
01/22/2019 13:27 Chemically Wet 31.8F - 31F 32F 95 1% 0.00 in - 0% 3 mhos 270 - Yes - - -
01/22/2019 13:20 Chemically Wet 32.0F - 31F 31F 95 2% 0.00 in - 0% 7 mhos 738 - Yes - - -
01/22/2019 13:17 Chemically Wet 31.6F - 31F 32F 95 1% - - 73% 2 mhos 207 - Yes - - -
01/22/2019 13:07 Wet 33.4F - 31F 29F 80 9% 0.00 in - 0% 25 mhos 2662 - Yes - - -
01/22/2019 13:05 Wet 33.8F - 31F 30F 70 8% 0.00 in - 0% 24 mhos 2518 - Yes - - -
01/22/2019 12:57 Wet 33.8F - 31F 31F 60 3% 0.00 in - 0% 8 mhos 846 - Yes - - -
01/22/2019 12:50 Wet 33.3F - 31F 32F 70 0% 0.00 in - 0% 1 mhos 137 - Yes - - -
01/22/2019 12:47 Wet 32.7F - 31F 32F 70 1% 0.00 in - 0% 2 mhos 153 - Yes - - -
01/22/2019 12:37 Wet 33.8F - 31F 32F 55 0% 0.00 in - 0% 1 mhos 60 - Yes - - -
Date/Time
(MST)
Sf
Temp Chem Water Layer Surface Precipitation
Sfc Pvt Sub Frz Factor Pct Dpth DpthThk IcePct Cond Salin FI Type Intens Accum Rate
01/22/2019 12:35 Wet 33.8F - 31F 32F 70 0% 0.00 in - 0% 1 mhos 84 - Yes - - -
01/22/2019 12:27 Wet 33.4F - 31F 32F 85 0% 0.00 in - 0% 1 mhos 78 - Yes - - -
01/22/2019 12:20 Wet 33.3F - 31F 32F 95 0% 0.00 in - 0% 1 mhos 82 - Yes - - -
01/22/2019 12:17 Wet 33.1F - 31F 32F 95 0% 0.00 in - 0% 1 mhos 70 - Yes - - -
01/22/2019 12:07 Chemically Wet 32.0F - 31F 32F 95 0% 0.00 in - 0% 1 mhos 74 - Yes - - -
01/22/2019 12:05 Chemically Wet 31.8F - 31F 32F 95 0% - - 81% 1 mhos 76 - Yes - - -
01/22/2019 11:57 Ice Warning 31.3F - 31F 32F 95 0% - - 96% 1 mhos 82 - Yes - - -
01/22/2019 11:50 Ice Warning 30.4F - 31F 32F 95 0% - - 97% 1 mhos 90 - Yes - - -
01/22/2019 11:47 Ice Warning 30.2F - 31F 32F 90 0% - - 98% 1 mhos 91 - Yes - - -
01/22/2019 11:36 Ice Warning 29.5F - 31F 32F 75 0% - - 98% 1 mhos 99 - Yes - - -
01/22/2019 11:35 Ice Warning 29.5F - 31F 32F 70 0% - - 98% 1 mhos 99 - Yes - - -
01/22/2019 11:26 Ice Warning 28.8F - 31F 32F 65 0% - - 98% 1 mhos 108 - Yes - - -
01/22/2019 11:20 Ice Warning 28.0F - 31F 32F 60 0% - - 98% 1 mhos 115 - Yes - - -
01/22/2019 11:16 Ice Warning 28.0F - 31F 32F 60 0% - - 98% 1 mhos 117 - None None - -
01/22/2019 11:06 Ice Warning 27.3F - 31F 32F 65 0% - - 99% 1 mhos 125 - None None - -
Date/Time
(MST)
Sf
Temp Chem Water Layer Surface Precipitation
Sfc Pvt Sub Frz Factor Pct Dpth DpthThk IcePct Cond Salin FI Type Intens Accum Rate
01/22/2019 11:05 Ice Warning 27.1F - 31F 32F 65 0% - - 99% 1 mhos 127 - Yes - - -
01/22/2019 10:56 Ice Warning 26.8F - 31F 32F 65 0% - - 99% 1 mhos 135 - None None - -
01/22/2019 10:50 Ice Warning 26.4F - 31F 32F 60 0% - - 99% 1 mhos 140 - None None - -
01/22/2019 10:46 Ice Warning 26.1F - 31F 32F 60 0% - - 99% 1 mhos 145 - None None - -
01/22/2019 10:36 Ice Warning 25.7F - 31F 32F 60 1% - - 99% 1 mhos 153 - None None - -
01/22/2019 10:35 Ice Warning 25.7F - 31F 32F 60 1% - - 99% 1 mhos 153 - None None - -
01/22/2019 10:26 Ice Warning 24.8F - 31F 32F 60 1% - - 99% 1 mhos 168 - None None - -
01/22/2019 10:20 Ice Warning 24.4F - 31F 32F 60 1% - - 99% 1 mhos 175 - None None - -
01/22/2019 10:16 Ice Warning 24.3F - 31F 32F 60 1% - - 99% 1 mhos 179 - None None - -
01/22/2019 10:06 Ice Warning 23.5F - 31F 32F 55 1% - - 99% 1 mhos 194 - Yes - - -
01/22/2019 10:06 Ice Warning 23.5F - 31F 32F 55 1% - - 99% 1 mhos 194 - Yes - - -
01/22/2019 09:56 Ice Warning 22.6F - 31F 32F 55 1% - - 99% 1 mhos 208 - Yes - - -
01/22/2019 09:51 Ice Warning 22.3F - 31F 32F 55 1% - - 99% 1 mhos 218 - Yes - - -
01/22/2019 09:46 Ice Warning 21.9F - 31F 32F 55 1% - - 99% 1 mhos 224 - Yes - - -
01/22/2019 09:36 Ice Warning 21.4F - 31F 32F 50 1% - - 98% 1 mhos 237 - Yes - - -
Date/Time
(MST)
Sf
Temp Chem Water Layer Surface Precipitation
Sfc Pvt Sub Frz Factor Pct Dpth DpthThk IcePct Cond Salin FI Type Intens Accum Rate
01/22/2019 09:36 Ice Warning 21.4F - 31F 32F 50 1% - - 98% 1 mhos 237 - Yes - - -
01/22/2019 09:26 Ice Warning 20.5F - 31F 32F 50 1% - - 98% 1 mhos 253 - Yes - - -
01/22/2019 09:21 Ice Warning 20.1F - 31F 32F 45 1% - - 98% 1 mhos 264 - Yes - - -
01/22/2019 09:16 Ice Warning 19.8F - 31F 32F 45 1% - - 98% 1 mhos 271 - Yes - - -
01/22/2019 09:06 Ice Warning 19.2F - 31F 32F 45 1% - - 98% 1 mhos 285 - None None - -
01/22/2019 09:05 Ice Warning 19.2F - 31F 32F 45 1% - - 98% 1 mhos 285 - None None - -
01/22/2019 08:55 Ice Warning 18.7F - 31F 32F 40 1% - - 98% 1 mhos 299 - None None - -
01/22/2019 08:51 Ice Warning 18.5F - 31F 32F 40 1% - - 98% 1 mhos 304 - None None - -
01/22/2019 08:45 Ice Warning 18.3F - 31F 32F 40 1% - - 98% 1 mhos 311 - None None - -
01/22/2019 08:36 Ice Warning 17.8F - 31F 32F 40 1% - - 98% 1 mhos 321 - None None - -
01/22/2019 08:35 Ice Warning 17.8F - 31F 32F 40 1% - - 98% 1 mhos 321 - None None - -
01/22/2019 08:25 Ice Warning 17.4F - 31F 32F 40 1% - - 98% 1 mhos 330 - None None - -
01/22/2019 08:21 Ice Warning 17.2F - 31F 32F 35 1% - - 98% 1 mhos 332 - None None - -
01/22/2019 08:15 Ice Warning 17.2F - 31F 32F 35 1% - - 98% 1 mhos 332 - None None - -
01/22/2019 08:05 Ice Warning 17.1F - 31F 32F 35 1% - - 98% 1 mhos 341 - None None - -
Date/Time
(MST)
Sf
Temp Chem Water Layer Surface Precipitation
Sfc Pvt Sub Frz Factor Pct Dpth DpthThk IcePct Cond Salin FI Type Intens Accum Rate
01/22/2019 08:05 Ice Warning 17.1F - 31F 32F 35 1% - - 98% 1 mhos 341 - None None - -
01/22/2019 07:55 Ice Warning 16.9F - 31F 32F 35 1% - - 98% 1 mhos 345 - None None - -
01/22/2019 07:50 Ice Warning 16.9F - 31F 32F 35 1% - - 98% 1 mhos 345 - None None - -
01/22/2019 07:45 Ice Warning 16.7F - 31F 32F 35 1% - - 98% 1 mhos 350 - None None - -
01/22/2019 07:35 Ice Warning 16.7F - 31F 32F 35 1% - - 98% 1 mhos 350 - None None - -
01/22/2019 07:35 Ice Warning 16.7F - 31F 32F 35 1% - - 98% 1 mhos 350 - None None - -
01/22/2019 07:25 Ice Warning 16.5F - 31F 32F 35 1% - - 98% 1 mhos 353 - None None - -
01/22/2019 07:20 Ice Warning 16.3F - 31F 32F 35 1% - - 98% 1 mhos 358 - None None - -
01/22/2019 07:15 Ice Warning 16.3F - 31F 32F 30 1% - - 98% 1 mhos 359 - None None - -
01/22/2019 07:05 Ice Warning 16.5F - 31F 32F 30 1% - - 98% 1 mhos 357 - None None - -
01/22/2019 07:05 Ice Warning 16.5F - 31F 32F 30 1% - - 98% 1 mhos 357 - None None - -
01/22/2019 06:55 Ice Warning 16.2F - 31F 32F 30 1% - - 98% 1 mhos 368 - Yes - - -
Change End Date:

Copyright © 1998-2015 Vaisala, Inc.
All Rights Reserved
Send comments about the data to:
SCAN Web ® is a registered trademark of Vaisala, Inc.
SCAN Web Version 6.0